Regional Weather Roundup
Issued by NWS Bismarck, ND

Home | Current Version | Previous Version | Text Only | Print | Product List | Glossary On
Versions: 1 2 3 4 5 6 7 8 9 10 11 12 13 14 15 16 17 18 19 20 21 22 23 24 25 26 27 28 29 30 31 32 33 34 35 36 37 38 39 40 41 42 43 44 45 46 47 48 49 50
000
ASUS43 KBIS 271210
RWRBIS

NWR BROADCAST TEXT
NATIONAL WEATHER SERVICE BISMARCK ND
700 AM CDT MON APR 27 2015

NOTE: "FAIR" INDICATES FEW OR NO CLOUDS BELOW 12,000 FEET WITH NO
SIGNIFICANT WEATHER AND/OR OBSTRUCTIONS TO VISIBILITY.


CITY           SKY/WX    TMP DP  RH WIND       PRES   REMARKS
WILLISTON      LGT RAIN  41  38  89 W6        30.28R
MINOT          LGT RAIN  40  38  93 NW8       30.24R
MINOT AFB      DRIZZLE   40  40 100 NW9       30.23S
BISMARCK       CLOUDY    45  44  97 W6        30.22R FOG
DICKINSON      LGT RAIN  41  40  96 N9        30.22R FOG
GARRISON         N/A     41  39  93 N10       30.23R
HETTINGER ARPT CLOUDY    41  39  93 NW15      30.23R
JAMESTOWN      PTCLDY    36  30  79 SW3       30.19R
BEACH          CLOUDY    37  37 100 NW10      30.28R FOG
CARRINGTON     MIX PCPN  37  37 100 NW6       30.21R VSB<1/4
CROSBY         CLOUDY    37  37 100 CALM      30.28R
HARVEY           N/A    N/A N/A N/A MISG        N/A
HAZEN          CLOUDY    41  41 100 N8        30.25R
LINTON         PTSUNNY   41  41 100 CALM      30.20R
MANDAN         CLOUDY    45  45 100 N7        30.22R FOG
OAKES            N/A     32  28  86 CALM      30.21S
STANLEY        CLOUDY    39  39 100 NW5       30.26R
WATFORD CITY   LGT RAIN  39  39 100 CALM      30.26R
$$

CITY           SKY/WX    TMP DP  RH WIND       PRES   REMARKS
GRAND FORKS    MOCLDY    34  28  79 S3        30.18S
GRAND FORKS AF MOCLDY    35  32  89 SW6       30.18S
DEVILS LAKE    CLOUDY    45  41  87 N12       30.20R
FARGO          PTCLDY    37  25  61 SW5       30.20R
CANDO          CLOUDY    41  37  87 N9        30.22S
CAVALIER       CLOUDY    48  45  87 NW12      30.19R HAZE
GRAFTON        CLOUDY    39  39 100 W5        30.20R FOG
GWINNER        SUNNY     37  27  65 W8        30.22R
LANGDON        CLOUDY    43  39  87 NW9       30.21R
ROLLA          MIX PCPN  39  39 100 N9        30.22S
WALHALLA       PTSUNNY   46  46 100 NW6       30.21R
$$

CITY           SKY/WX    TMP DP  RH WIND       PRES   REMARKS
ABERDEEN       PTCLDY    31  25  78 CALM      30.22R
MOBRIDGE       PTCLDY    37  32  82 CALM      30.17R
BUFFALO          N/A     38  37  97 NW17      30.17R
RAPID CITY     CLOUDY    42  39  89 N20       30.20R
GLASGOW        CLOUDY    39  35  86 W5        30.28R
SIDNEY         CLOUDY    39  37  93 W5        30.29R
WOLF POINT     CLOUDY    41  39  93 SW3       30.30R
GLENDIVE       CLOUDY    37  36  93 CALM      30.30R
MILES CITY     CLOUDY    38  36  92 W6        30.30R
BAKER          CLOUDY    37  35  92 NW12      30.28R
$$

CITY           SKY/WX    TMP DP  RH WIND       PRES   REMARKS
BILLINGS       PTCLDY    35  32  88 SW6       30.29S
GREAT FALLS    CLEAR     32  29  88 SW13      30.25R
REGINA         PTCLDY    30  30 100 W6        30.27R
ESTEVAN        LGT RAIN  37  37 100 W5        30.27R FOG
$$



USA.gov is the U.S. government's official web portal to all federal, state and local government web resources and services.